• In Deutschland
  • Länderverzeichnis
  • Für 7 Tage
  • Wassertemperatur
  • Satellitenkarten
  • Wetterkarte
  • Widgets
  • user-avatar
    Anmelden

    Stündliche Wetter Senden

    Heute, 22 September, Samstag

    Zeit Temperatur Niederschläge Wind Luftdruck Luftfeuchtigkeit
    00:00 +12°C° 0.2 mm 2 m/S 721 mmHg 88%
    01:00 +10°C° 0 mm 3 m/S 722 mmHg 86%
    02:00 +10°C° 0 mm 2 m/S 722 mmHg 87%
    03:00 +9°C° 0 mm 2 m/S 722 mmHg 89%
    04:00 +9°C° 0 mm 2 m/S 722 mmHg 90%
    05:00 +9°C° 0 mm 2 m/S 722 mmHg 89%
    06:00 +9°C° 0 mm 2 m/S 722 mmHg 89%
    07:00 +9°C° 0 mm 2 m/S 722 mmHg 88%
    08:00 +10°C° 0 mm 2 m/S 723 mmHg 81%
    09:00 +12°C° 0 mm 2 m/S 723 mmHg 73%
    10:00 +14°C° 0 mm 2 m/S 723 mmHg 66%
    11:00 +15°C° 0 mm 2 m/S 722 mmHg 61%
    12:00 +16°C° 0 mm 2 m/S 722 mmHg 57%
    13:00 +17°C° 0 mm 2 m/S 722 mmHg 52%
    14:00 +17°C° 0 mm 2 m/S 721 mmHg 54%
    15:00 +17°C° 0 mm 2 m/S 721 mmHg 56%
    16:00 +17°C° 0 mm 2 m/S 721 mmHg 59%
    17:00 +16°C° 0.1 mm 2 m/S 721 mmHg 65%
    18:00 +15°C° 0.1 mm 1 m/S 721 mmHg 71%
    19:00 +13°C° 0.1 mm 1 m/S 721 mmHg 77%
    20:00 +13°C° 0.4 mm 1 m/S 721 mmHg 81%
    21:00 +12°C° 0.4 mm 1 m/S 721 mmHg 84%
    22:00 +12°C° 0.4 mm 1 m/S 721 mmHg 88%
    23:00 +12°C° 0.2 mm 1 m/S 721 mmHg 89%

    Morgen, 23 September, Sonntag

    Zeit Temperatur Niederschläge Wind Luftdruck Luftfeuchtigkeit
    00:00 +12°C° 0.2 mm 1 m/S 721 mmHg 90%
    01:00 +12°C° 0.2 mm 2 m/S 720 mmHg 91%
    02:00 +12°C° 0.4 mm 2 m/S 720 mmHg 91%
    03:00 +13°C° 0.4 mm 2 m/S 719 mmHg 91%
    04:00 +12°C° 0.4 mm 3 m/S 719 mmHg 91%
    05:00 +13°C° 0.3 mm 4 m/S 719 mmHg 89%
    06:00 +13°C° 0.3 mm 5 m/S 718 mmHg 88%
    07:00 +14°C° 0.3 mm 6 m/S 718 mmHg 86%
    08:00 +15°C° 0.3 mm 6 m/S 718 mmHg 85%
    09:00 +16°C° 0.3 mm 6 m/S 718 mmHg 85%
    10:00 +17°C° 0.3 mm 6 m/S 718 mmHg 84%
    11:00 +18°C° 0.1 mm 7 m/S 718 mmHg 79%
    12:00 +21°C° 0.1 mm 8 m/S 717 mmHg 74%
    13:00 +23°C° 0.1 mm 8 m/S 717 mmHg 69%
    14:00 +23°C° 0 mm 8 m/S 716 mmHg 70%
    15:00 +23°C° 0 mm 7 m/S 716 mmHg 70%
    16:00 +23°C° 0 mm 7 m/S 715 mmHg 70%
    17:00 +22°C° 0 mm 7 m/S 715 mmHg 71%
    18:00 +21°C° 0 mm 8 m/S 714 mmHg 71%
    19:00 +20°C° 0 mm 8 m/S 714 mmHg 72%
    20:00 +18°C° 2 mm 9 m/S 715 mmHg 77%
    21:00 +16°C° 2 mm 10 m/S 715 mmHg 82%
    22:00 +13°C° 2 mm 10 m/S 716 mmHg 88%
    23:00 +11°C° 1.1 mm 8 m/S 718 mmHg 89%

    übermorgen, 24 September, Montag

    Zeit Temperatur Niederschläge Wind Luftdruck Luftfeuchtigkeit
    00:00 +9°C° 1.1 mm 7 m/S 719 mmHg 90%
    01:00 +8°C° 1.1 mm 5 m/S 721 mmHg 91%
    02:00 +7°C° 0.1 mm 4 m/S 722 mmHg 91%
    03:00 +8°C° 0.1 mm 3 m/S 724 mmHg 91%
    04:00 +8°C° 0.1 mm 3 m/S 725 mmHg 91%
    05:00 +7°C° 0 mm 3 m/S 725 mmHg 92%
    06:00 +7°C° 0 mm 2 m/S 726 mmHg 93%
    07:00 +6°C° 0 mm 2 m/S 726 mmHg 94%
    08:00 +8°C° 0 mm 3 m/S 727 mmHg 88%
    09:00 +9°C° 0 mm 3 m/S 728 mmHg 82%
    10:00 +10°C° 0 mm 3 m/S 728 mmHg 76%
    11:00 +11°C° 0 mm 3 m/S 728 mmHg 70%
    12:00 +11°C° 0 mm 3 m/S 728 mmHg 64%
    13:00 +12°C° 0 mm 3 m/S 729 mmHg 57%
    14:00 +12°C° 0 mm 3 m/S 728 mmHg 57%
    15:00 +12°C° 0 mm 3 m/S 728 mmHg 57%
    16:00 +12°C° 0 mm 3 m/S 728 mmHg 56%
    17:00 +10°C° 0 mm 2 m/S 729 mmHg 61%
    18:00 +9°C° 0 mm 2 m/S 729 mmHg 66%
    19:00 +7°C° 0 mm 2 m/S 729 mmHg 70%
    20:00 +7°C° 0 mm 1 m/S 729 mmHg 71%
    21:00 +7°C° 0 mm 1 m/S 730 mmHg 72%
    22:00 +6°C° 0 mm 1 m/S 730 mmHg 73%
    23:00 +6°C° 0 mm 1 m/S 730 mmHg 76%

    25 September, Dienstag

    Zeit Temperatur Niederschläge Wind Luftdruck Luftfeuchtigkeit
    00:00 +6°C° 0 mm 1 m/S 730 mmHg 78%
    01:00 +5°C° 0 mm 1 m/S 731 mmHg 80%
    02:00 +4°C° 0 mm 2 m/S 730 mmHg 83%
    03:00 +4°C° 0 mm 2 m/S 730 mmHg 86%
    04:00 +3°C° 0 mm 2 m/S 730 mmHg 88%
    05:00 +4°C° 0 mm 2 m/S 731 mmHg 89%
    06:00 +3°C° 0 mm 3 m/S 731 mmHg 89%
    07:00 +3°C° 0 mm 3 m/S 731 mmHg 89%
    08:00 +5°C° 0 mm 4 m/S 731 mmHg 79%
    09:00 +7°C° 0 mm 4 m/S 731 mmHg 69%
    10:00 +9°C° 0 mm 5 m/S 731 mmHg 60%
    11:00 +9°C° 0 mm 5 m/S 731 mmHg 57%
    12:00 +10°C° 0 mm 5 m/S 731 mmHg 54%
    13:00 +11°C° 0 mm 6 m/S 730 mmHg 51%
    14:00 +12°C° 0 mm 5 m/S 730 mmHg 53%
    15:00 +12°C° 0 mm 5 m/S 730 mmHg 54%
    16:00 +12°C° 0 mm 5 m/S 729 mmHg 55%
    17:00 +9°C° 0 mm 5 m/S 729 mmHg 59%
    18:00 +7°C° 0 mm 4 m/S 729 mmHg 64%
    19:00 +6°C° 0 mm 4 m/S 729 mmHg 68%
    20:00 +5°C° 0 mm 4 m/S 729 mmHg 69%
    21:00 +4°C° 0 mm 3 m/S 730 mmHg 70%
    22:00 +4°C° 0 mm 3 m/S 730 mmHg 72%
    23:00 +3°C° 0 mm 3 m/S 729 mmHg 74%

    26 September, Mittwoch

    Zeit Temperatur Niederschläge Wind Luftdruck Luftfeuchtigkeit
    00:00 +3°C° 0 mm 3 m/S 729 mmHg 77%
    01:00 +3°C° 0 mm 2 m/S 729 mmHg 79%
    02:00 +3°C° 0 mm 2 m/S 729 mmHg 81%
    03:00 +2°C° 0 mm 2 m/S 728 mmHg 83%
    04:00 +3°C° 0 mm 1 m/S 728 mmHg 85%
    05:00 +3°C° 0 mm 1 m/S 728 mmHg 84%
    06:00 +4°C° 0 mm 1 m/S 728 mmHg 83%
    07:00 +4°C° 0 mm 1 m/S 728 mmHg 82%
    08:00 +7°C° 0 mm 1 m/S 728 mmHg 75%
    09:00 +10°C° 0 mm 1 m/S 729 mmHg 68%
    10:00 +13°C° 0 mm 2 m/S 729 mmHg 61%
    11:00 +15°C° 0 mm 2 m/S 729 mmHg 59%
    12:00 +17°C° 0 mm 2 m/S 729 mmHg 56%
    13:00 +19°C° 0 mm 2 m/S 729 mmHg 53%
    14:00 +19°C° 0 mm 2 m/S 728 mmHg 54%
    15:00 +19°C° 0 mm 2 m/S 728 mmHg 56%
    16:00 +20°C° 0 mm 1 m/S 728 mmHg 57%
    17:00 +18°C° 0 mm 1 m/S 728 mmHg 64%
    18:00 +14°C° 0 mm 1 m/S 728 mmHg 70%
    19:00 +12°C° 0 mm 1 m/S 727 mmHg 76%
    20:00 +11°C° 0 mm 1 m/S 728 mmHg 77%
    21:00 +11°C° 0 mm 1 m/S 728 mmHg 78%
    22:00 +10°C° 0 mm 1 m/S 728 mmHg 79%
    23:00 +10°C° 0 mm 1 m/S 728 mmHg 80%

    27 September, Donnerstag

    Zeit Temperatur Niederschläge Wind Luftdruck Luftfeuchtigkeit
    00:00 +10°C° 0 mm 1 m/S 727 mmHg 81%
    01:00 +9°C° 0 mm 1 m/S 727 mmHg 82%
    02:00 +9°C° 0 mm 1 m/S 727 mmHg 83%
    03:00 +8°C° 0 mm 2 m/S 727 mmHg 83%
    04:00 +8°C° 0 mm 2 m/S 727 mmHg 84%
    05:00 +8°C° 0 mm 2 m/S 726 mmHg 84%
    06:00 +8°C° 0 mm 2 m/S 726 mmHg 84%
    07:00 +8°C° 0 mm 2 m/S 726 mmHg 83%
    08:00 +12°C° 0 mm 2 m/S 726 mmHg 76%
    09:00 +14°C° 0 mm 3 m/S 726 mmHg 69%
    10:00 +18°C° 0 mm 3 m/S 726 mmHg 61%
    11:00 +19°C° 0 mm 3 m/S 726 mmHg 58%
    12:00 +20°C° 0 mm 3 m/S 725 mmHg 55%
    13:00 +21°C° 0 mm 3 m/S 725 mmHg 52%
    14:00 +21°C° 0 mm 3 m/S 725 mmHg 55%
    15:00 +21°C° 0 mm 3 m/S 724 mmHg 58%
    16:00 +21°C° 0 mm 3 m/S 724 mmHg 61%
    17:00 +19°C° 0 mm 2 m/S 724 mmHg 67%
    18:00 +16°C° 0 mm 2 m/S 723 mmHg 73%
    19:00 +14°C° 0 mm 2 m/S 723 mmHg 79%
    20:00 +13°C° 0 mm 1 m/S 723 mmHg 81%
    21:00 +13°C° 0 mm 1 m/S 724 mmHg 82%
    22:00 +12°C° 0 mm 1 m/S 724 mmHg 84%
    23:00 +12°C° 0 mm 1 m/S 723 mmHg 85%
    Mehr zeigen